SDG094 LIEE-LIRQ

Flight info

Callsign SDG094
Flight time 0h 56m
Altitude 34000
Route KOVAS Q125 DEXUL DCT TINTO DCT NEMBO DCT ELB L12 MAREL
Aircraft A320/M-SDE3FGHIRWY/LB1

Departure

Time 2026-05-08 21:06
Airport Cagliari Elmas Airport (LIEE)

Arrival

Time 2026-05-08 22:03
Airport Florence Airport, Peretola (LIRQ)
Time Latitude Longitude Altitude Speed Heading
2026-05-08 20:42 39.25335 9.05843 17 ft 0 kts 142°
2026-05-08 20:42 39.25337 9.05841 16 ft 0 kts 142°
2026-05-08 20:58 39.25337 9.05840 15 ft 0 kts 142°
2026-05-08 20:58 39.25355 9.05823 17 ft 4 kts 142°
2026-05-08 20:59 39.25372 9.05806 17 ft 4 kts 151°
2026-05-08 20:59 39.25396 9.05797 15 ft 4 kts 193°
2026-05-08 20:59 39.25416 9.05813 19 ft 3 kts 232°
2026-05-08 20:59 39.25432 9.05839 15 ft 3 kts 232°
2026-05-08 21:00 39.25435 9.05844 15 ft 0 kts 232°
2026-05-08 21:02 39.25412 9.05807 16 ft 10 kts 231°
2026-05-08 21:02 39.25372 9.05743 15 ft 9 kts 232°
2026-05-08 21:02 39.25349 9.05659 15 ft 11 kts 293°
2026-05-08 21:02 39.25390 9.05569 15 ft 13 kts 287°
2026-05-08 21:03 39.25409 9.05461 16 ft 13 kts 286°
2026-05-08 21:03 39.25465 9.05336 15 ft 19 kts 313°
2026-05-08 21:03 39.25563 9.05220 15 ft 20 kts 318°
2026-05-08 21:03 39.25670 9.05098 15 ft 21 kts 318°
2026-05-08 21:04 39.25784 9.04965 15 ft 23 kts 318°
2026-05-08 21:04 39.25909 9.04821 15 ft 25 kts 317°
2026-05-08 21:04 39.26041 9.04669 15 ft 27 kts 318°
2026-05-08 21:04 39.26126 9.04501 15 ft 22 kts 274°
2026-05-08 21:05 39.26045 9.04395 15 ft 17 kts 158°
2026-05-08 21:05 39.25948 9.04500 14 ft 19 kts 139°
2026-05-08 21:05 39.25873 9.04586 15 ft 0 kts 138°
2026-05-08 21:06 39.25724 9.04759 16 ft 67 kts 138°
2026-05-08 21:06 39.25213 9.05347 15 ft 130 kts 138°
2026-05-08 21:06 39.24449 9.06220 305 ft 151 kts 139°
2026-05-08 21:06 39.23662 9.07126 917 ft 153 kts 138°
2026-05-08 21:07 39.22869 9.08049 1574 ft 154 kts 137°
2026-05-08 21:07 39.22031 9.09031 2002 ft 175 kts 137°
2026-05-08 21:07 39.21069 9.10150 2378 ft 198 kts 137°
2026-05-08 21:07 39.19984 9.11411 2829 ft 220 kts 137°
2026-05-08 21:08 39.18719 9.12579 3531 ft 230 kts 161°
2026-05-08 21:08 39.17136 9.12607 4314 ft 233 kts 202°
2026-05-08 21:08 39.15802 9.11446 5194 ft 233 kts 225°
2026-05-08 21:08 39.14724 9.09881 6091 ft 233 kts 233°
2026-05-08 21:09 39.13823 9.08152 6942 ft 233 kts 251°
2026-05-08 21:09 39.13602 9.06143 7781 ft 231 kts 275°
2026-05-08 21:09 39.14054 9.04093 8435 ft 248 kts 298°
2026-05-08 21:09 39.15243 9.02414 9003 ft 265 kts 315°
2026-05-08 21:10 39.16636 9.00832 9881 ft 267 kts 314°
2026-05-08 21:10 39.18027 8.99240 10734 ft 269 kts 313°
2026-05-08 21:10 39.19448 8.97601 11517 ft 273 kts 313°
2026-05-08 21:10 39.20856 8.95966 11957 ft 277 kts 313°
2026-05-08 21:11 39.22355 8.94375 12684 ft 284 kts 322°
2026-05-08 21:11 39.24172 8.93282 13421 ft 298 kts 338°
2026-05-08 21:11 39.26333 8.92845 13597 ft 329 kts 351°
2026-05-08 21:11 39.28691 8.92678 13923 ft 346 kts 352°
2026-05-08 21:12 39.31119 8.92521 14498 ft 352 kts 352°
2026-05-08 21:12 39.33584 8.92363 15183 ft 356 kts 351°
2026-05-08 21:12 39.36061 8.92201 15857 ft 358 kts 351°
2026-05-08 21:12 39.38559 8.92032 16528 ft 361 kts 351°
2026-05-08 21:13 39.41091 8.91999 17184 ft 369 kts 358°
2026-05-08 21:13 39.43655 8.92589 17837 ft 380 kts 10°
2026-05-08 21:13 39.46137 8.93872 18450 ft 392 kts 22°
2026-05-08 21:13 39.48548 8.95589 19033 ft 396 kts 23°
2026-05-08 21:14 39.50970 8.97325 19582 ft 399 kts 23°
2026-05-08 21:14 39.53411 8.99076 20131 ft 403 kts 23°
2026-05-08 21:14 39.55881 9.00847 20660 ft 407 kts 23°
2026-05-08 21:14 39.58372 9.02630 21201 ft 411 kts 22°
2026-05-08 21:15 39.60890 9.04428 21750 ft 415 kts 22°
2026-05-08 21:15 39.63435 9.06212 22287 ft 417 kts 19°
2026-05-08 21:15 39.66087 9.07557 22807 ft 412 kts
2026-05-08 21:15 39.68865 9.08496 23359 ft 414 kts
2026-05-08 21:16 39.71668 9.09425 23837 ft 417 kts
2026-05-08 21:16 39.74496 9.10368 24281 ft 420 kts
2026-05-08 21:16 39.77335 9.11322 24721 ft 423 kts
2026-05-08 21:16 39.80188 9.12289 25141 ft 425 kts
2026-05-08 21:17 39.83056 9.13330 25556 ft 432 kts 12°
2026-05-08 21:17 39.85841 9.14924 25959 ft 444 kts 22°
2026-05-08 21:17 39.88439 9.17173 26347 ft 455 kts 33°
2026-05-08 21:17 39.90842 9.19897 26736 ft 460 kts 36°
2026-05-08 21:18 39.93242 9.22664 27116 ft 462 kts 35°
2026-05-08 21:18 39.95661 9.25457 27470 ft 465 kts 35°
2026-05-08 21:18 39.98090 9.28265 27860 ft 468 kts 35°
2026-05-08 21:18 40.00530 9.31088 28243 ft 471 kts 35°
2026-05-08 21:19 40.02989 9.33936 28621 ft 473 kts 35°
2026-05-08 21:19 40.05451 9.36790 28983 ft 475 kts 35°
2026-05-08 21:19 40.07929 9.39660 29299 ft 477 kts 35°
2026-05-08 21:19 40.10415 9.42547 29666 ft 479 kts 36°
2026-05-08 21:20 40.12906 9.45444 30013 ft 481 kts 36°
2026-05-08 21:20 40.15416 9.48363 30258 ft 485 kts 36°
2026-05-08 21:20 40.17945 9.51303 30488 ft 488 kts 36°
2026-05-08 21:20 40.20481 9.54256 30726 ft 490 kts 36°
2026-05-08 21:21 40.23035 9.57235 30966 ft 492 kts 35°
2026-05-08 21:21 40.25596 9.60223 31188 ft 493 kts 35°
2026-05-08 21:21 40.28162 9.63216 31398 ft 495 kts 35°
2026-05-08 21:21 40.30746 9.66236 31617 ft 498 kts 35°
2026-05-08 21:22 40.33323 9.69258 31913 ft 497 kts 35°
2026-05-08 21:22 40.35900 9.72287 32230 ft 497 kts 34°
2026-05-08 21:22 40.38471 9.75308 32531 ft 497 kts 34°
2026-05-08 21:22 40.41050 9.78340 32825 ft 497 kts 34°
2026-05-08 21:23 40.43584 9.81324 33115 ft 497 kts 34°
2026-05-08 21:23 40.46158 9.84357 33405 ft 497 kts 34°
2026-05-08 21:23 40.48731 9.87395 33759 ft 497 kts 34°
2026-05-08 21:23 40.51288 9.90420 34037 ft 494 kts 35°
2026-05-08 21:24 40.53819 9.93417 34080 ft 485 kts 35°
2026-05-08 21:24 40.58804 9.99316 34076 ft 480 kts 35°
2026-05-08 21:25 40.63763 10.05188 34077 ft 479 kts 35°
2026-05-08 21:25 40.68712 10.11063 34074 ft 479 kts 35°
2026-05-08 21:26 40.73650 10.16938 34075 ft 477 kts 36°
2026-05-08 21:26 40.78566 10.22804 34082 ft 477 kts 36°
2026-05-08 21:27 40.83476 10.28678 34075 ft 477 kts 37°
2026-05-08 21:27 40.88386 10.34567 34098 ft 476 kts 37°
2026-05-08 21:28 40.93290 10.40458 34089 ft 476 kts 37°
2026-05-08 21:28 40.98192 10.46341 34082 ft 475 kts 37°
2026-05-08 21:29 41.03075 10.52236 34078 ft 475 kts 37°
2026-05-08 21:29 41.07949 10.58129 34086 ft 474 kts 38°
2026-05-08 21:30 41.12785 10.63986 34088 ft 473 kts 38°
2026-05-08 21:30 41.17632 10.69864 34086 ft 472 kts 38°
2026-05-08 21:31 41.22465 10.75753 34081 ft 471 kts 38°
2026-05-08 21:31 41.27295 10.81641 34090 ft 471 kts 38°
2026-05-08 21:32 41.32116 10.87516 34086 ft 470 kts 39°
2026-05-08 21:32 41.36921 10.93407 34082 ft 469 kts 39°
2026-05-08 21:33 41.41754 10.99223 34078 ft 466 kts 33°
2026-05-08 21:33 41.44422 11.01518 34076 ft 458 kts 22°
2026-05-08 21:33 41.47333 11.03137 34079 ft 451 kts 12°
2026-05-08 21:34 41.53409 11.04253 34073 ft 435 kts 352°
2026-05-08 21:34 41.56387 11.03747 34059 ft 428 kts 341°
2026-05-08 21:34 41.59251 11.02747 34054 ft 426 kts 339°
2026-05-08 21:35 41.64986 11.00701 34050 ft 427 kts 340°
2026-05-08 21:35 41.70736 10.98660 34053 ft 428 kts 340°
2026-05-08 21:36 41.76510 10.96607 34046 ft 430 kts 340°
2026-05-08 21:36 41.82295 10.94543 34046 ft 430 kts 340°
2026-05-08 21:37 41.88091 10.92473 34045 ft 431 kts 340°
2026-05-08 21:37 41.93894 10.90402 34045 ft 432 kts 341°
2026-05-08 21:38 41.99673 10.88329 34044 ft 433 kts 340°
2026-05-08 21:38 42.05507 10.86232 34048 ft 434 kts 341°
2026-05-08 21:39 42.11344 10.84128 34063 ft 435 kts 340°
2026-05-08 21:39 42.17200 10.82018 33981 ft 438 kts 341°
2026-05-08 21:39 42.20149 10.80956 33704 ft 439 kts 341°
2026-05-08 21:40 42.23089 10.79893 33262 ft 436 kts 341°
2026-05-08 21:40 42.26006 10.78840 32688 ft 432 kts 340°
2026-05-08 21:40 42.28825 10.77549 32139 ft 424 kts 332°
2026-05-08 21:41 42.33833 10.73635 31089 ft 412 kts 323°
2026-05-08 21:41 42.36238 10.71557 30577 ft 409 kts 323°
2026-05-08 21:41 42.38628 10.69501 30060 ft 406 kts 324°
2026-05-08 21:41 42.41002 10.67459 29517 ft 402 kts 324°
2026-05-08 21:42 42.42556 10.66121 29205 ft 399 kts 323°
2026-05-08 21:42 42.44880 10.64118 28719 ft 394 kts 323°
2026-05-08 21:42 42.47179 10.62132 28255 ft 389 kts 323°
2026-05-08 21:42 42.49447 10.60169 27797 ft 385 kts 323°
2026-05-08 21:43 42.51692 10.58221 27338 ft 381 kts 323°
2026-05-08 21:43 42.53913 10.56290 26917 ft 377 kts 323°
2026-05-08 21:43 42.56116 10.54371 26475 ft 374 kts 323°
2026-05-08 21:43 42.58296 10.52470 26054 ft 370 kts 323°
2026-05-08 21:44 42.60454 10.50590 25631 ft 367 kts 323°
2026-05-08 21:44 42.62590 10.48733 25219 ft 363 kts 323°
2026-05-08 21:44 42.64710 10.46891 24807 ft 360 kts 323°
2026-05-08 21:44 42.66810 10.45065 24392 ft 357 kts 323°
2026-05-08 21:45 42.68913 10.43294 23973 ft 356 kts 328°
2026-05-08 21:45 42.71168 10.42015 23540 ft 358 kts 340°
2026-05-08 21:45 42.73619 10.41367 23060 ft 360 kts 351°
2026-05-08 21:45 42.76126 10.41397 22635 ft 362 kts
2026-05-08 21:46 42.78589 10.42108 22169 ft 363 kts 15°
2026-05-08 21:46 42.80973 10.43208 21726 ft 361 kts 15°
2026-05-08 21:46 42.83348 10.44308 21281 ft 359 kts 15°
2026-05-08 21:46 42.85705 10.45400 20839 ft 357 kts 15°
2026-05-08 21:47 42.88049 10.46482 20399 ft 355 kts 15°
2026-05-08 21:47 42.90385 10.47557 19957 ft 354 kts 15°
2026-05-08 21:47 42.92712 10.48630 19524 ft 352 kts 15°
2026-05-08 21:47 42.95033 10.49700 19082 ft 352 kts 16°
2026-05-08 21:48 42.97350 10.50769 18655 ft 351 kts 16°
2026-05-08 21:48 42.99656 10.51836 18206 ft 350 kts 16°
2026-05-08 21:48 43.01956 10.52904 17758 ft 348 kts 16°
2026-05-08 21:48 43.04241 10.53965 17332 ft 345 kts 17°
2026-05-08 21:49 43.06508 10.55017 16914 ft 343 kts 17°
2026-05-08 21:49 43.08761 10.56064 16500 ft 341 kts 17°
2026-05-08 21:49 43.11003 10.57109 16098 ft 339 kts 17°
2026-05-08 21:49 43.13228 10.58148 15691 ft 338 kts 17°
2026-05-08 21:50 43.15452 10.59188 15287 ft 336 kts 17°
2026-05-08 21:50 43.17660 10.60221 14876 ft 335 kts 18°
2026-05-08 21:50 43.19859 10.61249 14484 ft 333 kts 18°
2026-05-08 21:50 43.22052 10.62269 14082 ft 332 kts 18°
2026-05-08 21:51 43.24239 10.63285 13644 ft 331 kts 18°
2026-05-08 21:51 43.26400 10.64291 13408 ft 323 kts 18°
2026-05-08 21:51 43.28494 10.65268 13273 ft 313 kts 18°
2026-05-08 21:51 43.30536 10.66220 13000 ft 307 kts 18°
2026-05-08 21:52 43.32529 10.67146 12609 ft 306 kts 18°
2026-05-08 21:52 43.34545 10.68083 12233 ft 305 kts 18°
2026-05-08 21:52 43.36522 10.69001 12092 ft 295 kts 18°
2026-05-08 21:52 43.38422 10.69884 11808 ft 282 kts 18°
2026-05-08 21:53 43.40264 10.70740 11308 ft 278 kts 18°
2026-05-08 21:53 43.42082 10.71586 10764 ft 274 kts 18°
2026-05-08 21:53 43.43881 10.72422 10223 ft 271 kts 18°
2026-05-08 21:53 43.45663 10.73251 9645 ft 269 kts 20°
2026-05-08 21:54 43.47330 10.74351 9106 ft 263 kts 31°
2026-05-08 21:54 43.48900 10.75661 8676 ft 265 kts 31°
2026-05-08 21:54 43.50478 10.76971 8297 ft 264 kts 31°
2026-05-08 21:54 43.52054 10.78277 7930 ft 262 kts 31°
2026-05-08 21:55 43.53588 10.79550 7775 ft 252 kts 31°
2026-05-08 21:55 43.55016 10.80840 7665 ft 240 kts 40°
2026-05-08 21:55 43.56203 10.82417 7352 ft 239 kts 47°
2026-05-08 21:56 43.58470 10.85905 6112 ft 246 kts 47°
2026-05-08 21:56 43.59585 10.87611 5928 ft 229 kts 47°
2026-05-08 21:56 43.60609 10.89175 5844 ft 213 kts 47°
2026-05-08 21:56 43.61588 10.90671 5627 ft 209 kts 47°
2026-05-08 21:57 43.62562 10.92160 5353 ft 208 kts 47°
2026-05-08 21:57 43.63531 10.93642 5076 ft 208 kts 47°
2026-05-08 21:57 43.64499 10.95124 4807 ft 207 kts 47°
2026-05-08 21:57 43.65463 10.96600 4525 ft 206 kts 47°
2026-05-08 21:58 43.66409 10.98050 4253 ft 206 kts 47°
2026-05-08 21:58 43.67366 10.99517 3978 ft 205 kts 47°
2026-05-08 21:58 43.68319 11.00979 3701 ft 203 kts 48°
2026-05-08 21:58 43.69247 11.02402 3480 ft 195 kts 48°
2026-05-08 21:59 43.70138 11.03770 3194 ft 187 kts 47°
2026-05-08 21:59 43.70980 11.05063 2940 ft 176 kts 48°
2026-05-08 21:59 43.71784 11.06298 2713 ft 171 kts 48°
2026-05-08 21:59 43.72571 11.07508 2489 ft 168 kts 48°
2026-05-08 22:00 43.73352 11.08709 2259 ft 167 kts 48°
2026-05-08 22:00 43.74122 11.09895 2043 ft 165 kts 48°
2026-05-08 22:00 43.74889 11.11075 1816 ft 164 kts 48°
2026-05-08 22:00 43.75651 11.12248 1599 ft 164 kts 48°
2026-05-08 22:01 43.76406 11.13412 1397 ft 163 kts 48°
2026-05-08 22:01 43.77159 11.14572 1156 ft 162 kts 48°
2026-05-08 22:01 43.77905 11.15722 939 ft 160 kts 47°
2026-05-08 22:01 43.78649 11.16870 725 ft 157 kts 47°
2026-05-08 22:02 43.79344 11.17940 521 ft 144 kts 47°
2026-05-08 22:02 43.79994 11.18943 278 ft 138 kts 47°
2026-05-08 22:02 43.80621 11.19905 138 ft 133 kts 47°
2026-05-08 22:02 43.81157 11.20733 139 ft 84 kts 49°
2026-05-08 22:03 43.81368 11.21067 146 ft 29 kts 49°
2026-05-08 22:03 43.81475 11.21267 148 ft 23 kts 76°
2026-05-08 22:03 43.81424 11.21373 150 ft 12 kts 163°
2026-05-08 22:03 43.81352 11.21363 151 ft 10 kts 214°
2026-05-08 22:04 43.81289 11.21269 151 ft 17 kts 230°
2026-05-08 22:04 43.81257 11.21109 148 ft 19 kts 279°
2026-05-08 22:04 43.81251 11.20911 145 ft 23 kts 245°
2026-05-08 22:04 43.81155 11.20723 138 ft 23 kts 227°
2026-05-08 22:05 43.81033 11.20557 134 ft 27 kts 228°
2026-05-08 22:05 43.80905 11.20359 134 ft 29 kts 228°
2026-05-08 22:05 43.80780 11.20165 135 ft 24 kts 229°
2026-05-08 22:05 43.80691 11.20042 132 ft 15 kts 213°
2026-05-08 22:06 43.80592 11.20004 131 ft 14 kts 190°
2026-05-08 22:06 43.80512 11.20013 133 ft 11 kts 141°
2026-05-08 22:06 43.80451 11.20008 132 ft 9 kts 216°
2026-05-08 22:06 43.80390 11.19977 128 ft 10 kts 181°
2026-05-08 22:07 43.80338 11.20001 131 ft 6 kts 114°
2026-05-08 22:07 43.80341 11.20042 132 ft 0 kts 86°